[[{"header":{"parameterUnit":"m.s-1","parameterCategory":1,"la1":30.2991,"la2":30.254,"lo1":-89.0895,"lo2":-89.0444,"dy":0.0017,"dx":0.0017,"nx":28,"ny":28,"refTime":"2025-03-04T09:00:00:Z","depth":0,"parameterNumber":2,"parameterNumberName":"U-component_of_WINDS"},"data":[0,0,0,0,0,0,0,0,0,0,0,0,0,0,0,0,0,0,0,0,0,0,0,0,0,0,0,0,0,0,0,0,0,0,0,0,0,0,0,0,0,0,0,0,0,0,0,0,0,0,0,0,0,0,0,0,0,0,-4.8862,-4.8863,0,-4.8981,-4.8982,-4.8983,-4.9025,-4.9024,-4.9024,-4.9023,-4.9144,-4.9147,-4.9151,0,0,0,0,0,0,0,0,0,0,0,0,0,-4.8668,-4.8671,-4.8861,-4.8863,-4.8864,-4.898,-4.8982,-4.8984,-4.9025,-4.9024,-4.9024,-4.9023,-4.9143,-4.9147,-4.9151,0,0,0,0,0,0,0,0,0,0,0,0,0,-4.8766,-4.8673,-4.8861,-4.8899,-4.8904,-4.898,-4.8982,-4.8984,-4.9025,-4.9024,-4.9024,-4.9023,-4.9141,-4.9146,-4.9152,-4.9199,0,0,-4.9168,-4.9171,0,0,0,0,0,0,0,0,-4.876,-4.8773,-4.8892,-4.8897,-4.8902,-4.8987,-4.8958,-4.9056,-4.9025,-4.8979,-4.9023,-4.9023,-4.9092,-4.9102,-4.9125,-4.9205,-4.921,-4.9169,-4.9172,-4.9175,-4.9176,0,0,0,0,0,0,0,-4.8754,-4.8768,-4.8909,-4.8894,-4.89,-4.891,-4.8923,-4.8977,-4.9038,-4.8983,-4.8986,-4.9,-4.9095,-4.912,-4.9128,-4.9212,-4.9169,-4.9174,-4.9177,-4.9179,-4.9335,-4.9336,0,0,0,0,0,0,-4.8741,-4.8762,-4.8905,-4.8912,-4.8828,-4.8914,-4.8928,-4.896,-4.9037,-4.9048,-4.9,-4.9001,-4.9111,-4.9122,-4.9133,-4.9193,-4.9175,-4.918,-4.9183,-4.9335,-4.9336,-4.9337,0,0,0,0,0,0,-4.8736,-4.8753,-4.89,-4.8838,-4.8858,-4.8918,-4.8953,-4.8963,-4.8989,-4.9051,-4.9061,-4.9015,-4.9111,-4.9125,-4.9182,-4.9198,-4.9182,-4.9187,-4.9334,-4.9335,-4.9336,-4.9313,0,0,0,0,0,0,-4.8731,-4.8751,-4.877,-4.8838,-4.8861,-4.8948,-4.8954,-4.8966,-4.8998,-4.9,-4.9067,-4.9078,-4.9112,-4.9174,-4.9188,-4.9205,-4.9191,-4.9332,-4.9334,-4.9336,-4.9313,-4.9314,-4.9314,0,0,0,0,0,-4.8724,-4.8759,-4.8771,-4.8788,-4.8886,-4.8949,-4.8961,-4.9,-4.8999,-4.9018,-4.9058,-4.9075,-4.9194,-4.9179,-4.9195,-4.9214,-4.9332,-4.9334,-4.9336,-4.9312,-4.9313,-4.9314,0,0,0,0,0,0,-4.869,-4.8768,-4.8783,-4.8841,-4.8888,-4.8955,-4.8981,-4.9,-4.9048,-4.9048,-4.9094,-4.9108,-4.9162,-4.9194,-4.9176,-4.9264,-4.9264,-4.9269,-4.9241,-4.9242,-4.9243,-4.9233,-4.9196,0,0,0,0,0,-4.8689,-4.8734,-4.88,-4.8845,-4.8868,-4.892,-4.8949,-4.8975,-4.9025,-4.9045,-4.9089,-4.9137,-4.9185,-4.9215,-4.9263,-4.9318,-4.9333,-4.9339,-4.934,-4.934,-4.9343,-4.9375,-4.9378,-4.9343,-4.9343,-4.9343,0,0,-4.8688,-4.8737,-4.8762,-4.884,-4.8879,-4.8924,-4.8937,-4.8984,-4.9017,-4.9052,-4.9109,-4.9143,-4.9199,-4.9255,-4.9282,-4.9284,-4.9357,-4.9342,-4.9342,-4.9346,-4.9377,-4.938,-4.9383,-4.9345,-4.9344,-4.9344,0,0,-4.871,-4.8751,-4.8793,-4.8832,-4.8892,-4.8927,-4.8937,-4.9002,-4.9026,-4.9083,-4.911,-4.9151,-4.9233,-4.9272,-4.9302,-4.9338,-4.9356,-4.9353,-4.9356,-4.9386,-4.9388,-4.9391,-4.9403,-4.9407,-4.9356,-4.9356,-4.9356,0,-4.8701,-4.877,-4.8812,-4.8858,-4.8891,-4.8925,-4.8967,-4.9003,-4.9075,-4.9097,-4.9098,-4.9201,-4.9242,-4.9307,-4.9316,-4.934,-4.9352,-4.9345,-4.9385,-4.9388,-4.9391,-4.9403,-4.9408,-4.9355,-4.9356,-4.9356,-4.9356,0,-4.8756,-4.8804,-4.883,-4.8899,-4.8935,-4.8979,-4.9027,-4.9058,-4.9081,-4.9115,-4.9174,-4.9223,-4.9282,-4.9299,-4.9322,-4.9368,-4.9367,-4.9376,-4.9376,-4.9393,-4.9405,-4.941,-4.9354,-4.9355,-4.9355,-4.9355,0,0,-4.8759,-4.8851,-4.8859,-4.8891,-4.896,-4.8997,-4.9042,-4.91,-4.9125,-4.9174,-4.9213,-4.9282,-4.929,-4.9325,-4.9352,-4.9378,-4.9403,-4.9384,-4.9386,-4.9385,-4.9457,-4.9449,-4.9454,-4.9416,-4.9417,-4.9418,-4.9452,0,-4.8788,-4.8871,-4.891,-4.8975,-4.9019,-4.9052,-4.9092,-4.9138,-4.9171,-4.9213,-4.925,-4.9298,-4.9306,-4.9327,-4.9355,-4.9394,-4.9418,-4.9393,-4.9452,-4.9453,-4.9436,-4.946,-4.9453,-4.9482,-4.9457,-4.9458,-4.9458,0,-4.8834,-4.8883,-4.8952,-4.9015,-4.9035,-4.907,-4.9126,-4.9166,-4.9219,-4.9241,-4.928,-4.9306,-4.9355,-4.9353,-4.942,-4.9402,-4.9428,-4.9451,-4.9454,-4.946,-4.9456,-4.9467,-4.9493,-4.9497,-4.9466,-4.9466,-4.9465,0,-4.8828,-4.8911,-4.8964,-4.899,-4.9065,-4.9088,-4.9121,-4.9173,-4.9205,-4.9253,-4.9275,-4.9328,-4.9357,-4.9398,-4.9438,-4.9433,-4.9501,-4.9502,-4.9521,-4.952,-4.9533,-4.9531,-4.9563,-4.9551,-4.9551,-4.9551,-4.9551,0,-4.8857,-4.8898,-4.8962,-4.8994,-4.9041,-4.9085,-4.913,-4.9165,-4.9211,-4.925,-4.9283,-4.9318,-4.937,-4.9412,-4.9444,-4.9495,-4.9508,-4.9527,-4.9535,-4.9524,-4.9521,-4.9541,-4.954,-4.9552,-4.9552,-4.9552,-4.9551,0,-4.8858,-4.8903,-4.8962,-4.9028,-4.9046,-4.9077,-4.9134,-4.9166,-4.9201,-4.925,-4.9264,-4.9319,-4.9371,-4.9415,-4.9483,-4.9505,-4.9557,-4.9567,-4.9539,-4.9543,-4.9558,-4.9556,-4.9603,-4.9611,-4.9594,-4.9595,-4.9595,0,-4.8873,-4.8905,-4.8975,-4.9004,-4.9035,-4.9081,-4.9114,-4.9159,-4.9192,-4.9254,-4.9279,-4.9333,-4.9378,-4.9459,-4.9505,-4.9557,-4.9568,-4.9581,-4.9576,-4.9564,-4.9568,-4.9565,-4.9568,-4.9581,-4.9581,-4.9581,-4.9581,0,-4.8894,-4.8915,-4.8961,-4.9015,-4.9053,-4.9098,-4.9143,-4.9165,-4.9218,-4.9253,-4.9306,-4.9342,-4.9411,-4.9464,-4.9522,-4.9555,-4.9577,-4.9582,-4.9589,-4.9578,-4.956,-4.9569,-4.9538,-4.9581,-4.9581,-4.9581,-4.9581,-4.9581,-4.8903,-4.8933,-4.8987,-4.9037,-4.9076,-4.9118,-4.9151,-4.919,-4.9236,-4.9296,-4.932,-4.9374,-4.9426,-4.9505,-4.9538,-4.9581,-4.9585,-4.9595,-4.9597,-4.9599,-4.9597,-4.9554,-4.9592,-4.9592,-4.9592,-4.9592,-4.9592,0,-4.8926,-4.8962,-4.9008,-4.907,-4.911,-4.9127,-4.9178,-4.921,-4.9257,-4.9304,-4.9348,-4.9409,-4.9461,-4.9511,-4.9565,-4.959,-4.9602,-4.9603,-4.9601,-4.9608,-4.9591,-4.9579,-4.9593,-4.9593,-4.9593,-4.9593,-4.9593,-4.9593,-4.8942,-4.8994,-4.9021,-4.9092,-4.9128,-4.9181,-4.9209,-4.9248,-4.9285,-4.9352,-4.9395,-4.9427,-4.9476,-4.9534,-4.9582,-4.9595,-4.9613,-4.9612,-4.9628,-4.961,-4.961,-4.9609,-4.9598,-4.9616,-4.9616,-4.9642,-4.9642,-4.9642]},{"header":{"parameterUnit":"m.s-1","parameterCategory":1,"la1":30.2991,"la2":30.254,"lo1":-89.0895,"lo2":-89.0444,"dy":0.0017,"dx":0.0017,"nx":28,"ny":28,"refTime":"2025-03-04T09:00:00:Z","depth":0,"parameterNumber":3,"parameterNumberName":"V-component_of_WINDS"},"data":[0,0,0,0,0,0,0,0,0,0,0,0,0,0,0,0,0,0,0,0,0,0,0,0,0,0,0,0,0,0,0,0,0,0,0,0,0,0,0,0,0,0,0,0,0,0,0,0,0,0,0,0,0,0,0,0,0,0,5.7564,5.7566,0,5.7759,5.7761,5.7763,5.7804,5.7803,5.7801,5.78,5.7997,5.8004,5.801,0,0,0,0,0,0,0,0,0,0,0,0,0,5.7228,5.7234,5.7564,5.7567,5.7569,5.7759,5.7761,5.7764,5.7805,5.7803,5.7801,5.7799,5.7995,5.8003,5.8011,0,0,0,0,0,0,0,0,0,0,0,0,0,5.7393,5.7236,5.7564,5.7612,5.7618,5.7758,5.7761,5.7765,5.7805,5.7803,5.7801,5.7799,5.7992,5.8002,5.8012,5.8116,0,0,5.8042,5.8046,0,0,0,0,0,0,0,0,5.7384,5.7406,5.7603,5.7609,5.7616,5.7755,5.7715,5.7882,5.7805,5.7734,5.78,5.7797,5.7918,5.7934,5.7975,5.8125,5.8134,5.8043,5.8049,5.8053,5.8056,0,0,0,0,0,0,0,5.7373,5.7398,5.7641,5.7605,5.7614,5.7624,5.7646,5.7747,5.7836,5.774,5.7744,5.7766,5.7922,5.7966,5.798,5.8137,5.8043,5.8051,5.8057,5.8061,5.8386,5.8389,0,0,0,0,0,0,5.7353,5.7388,5.7635,5.7647,5.7493,5.7632,5.7656,5.7713,5.7835,5.7851,5.7768,5.7767,5.795,5.7969,5.7987,5.8121,5.8053,5.8062,5.8068,5.8384,5.8387,5.839,0,0,0,0,0,0,5.7345,5.7374,5.7627,5.7519,5.7552,5.764,5.7704,5.7718,5.7762,5.7856,5.7872,5.7797,5.7949,5.7973,5.8085,5.8128,5.8067,5.8076,5.838,5.8385,5.8388,5.8386,0,0,0,0,0,0,5.7335,5.7371,5.7412,5.7519,5.7557,5.7721,5.7707,5.7723,5.7779,5.778,5.7887,5.7903,5.7949,5.807,5.8095,5.814,5.8083,5.8377,5.8382,5.8387,5.8383,5.8389,5.8395,0,0,0,0,0,5.7323,5.7402,5.7413,5.7443,5.7609,5.7724,5.7745,5.7798,5.7782,5.7824,5.7885,5.7899,5.8119,5.8081,5.8109,5.8158,5.8375,5.8381,5.8387,5.838,5.8388,5.8395,0,0,0,0,0,0,5.7295,5.7417,5.7431,5.7546,5.7625,5.773,5.7784,5.7804,5.7888,5.7885,5.7946,5.797,5.8079,5.8129,5.8085,5.8268,5.8246,5.8258,5.8231,5.824,5.8246,5.8232,5.8092,0,0,0,0,0,5.7303,5.7386,5.7487,5.7579,5.7618,5.7694,5.7746,5.778,5.7863,5.7896,5.7965,5.8045,5.8133,5.8189,5.8274,5.839,5.8415,5.8438,5.8444,5.8449,5.8459,5.8528,5.854,5.841,5.841,5.841,0,0,5.7319,5.7395,5.7443,5.7576,5.764,5.7726,5.7722,5.7811,5.7876,5.7909,5.802,5.8074,5.8167,5.8282,5.8336,5.8328,5.8501,5.8457,5.846,5.8468,5.8535,5.8547,5.8558,5.8414,5.8413,5.8413,0,0,5.7392,5.7457,5.7543,5.7609,5.7707,5.7758,5.7779,5.7883,5.792,5.8032,5.8061,5.8138,5.8286,5.8353,5.8406,5.8508,5.8525,5.8534,5.8567,5.8634,5.8644,5.8653,5.8693,5.8706,5.8543,5.8543,5.8543,0,5.7399,5.7529,5.7584,5.7674,5.7733,5.7769,5.7857,5.7918,5.8039,5.8079,5.8067,5.8258,5.8322,5.8456,5.8481,5.8522,5.8549,5.8522,5.8638,5.8648,5.8658,5.8696,5.871,5.8544,5.8544,5.8544,5.8544,0,5.7535,5.7625,5.7682,5.7801,5.7865,5.7953,5.8023,5.8082,5.8111,5.8163,5.8278,5.8358,5.8462,5.8496,5.8524,5.8634,5.8626,5.8626,5.8605,5.867,5.8707,5.8722,5.8545,5.8545,5.8544,5.8544,0,0,5.7595,5.7745,5.7765,5.7821,5.7934,5.8005,5.8095,5.8199,5.8249,5.8332,5.8411,5.8537,5.8539,5.8599,5.8636,5.8693,5.8773,5.8687,5.869,5.8702,5.8903,5.8905,5.8921,5.8785,5.8788,5.879,5.8897,0,5.7684,5.7849,5.7902,5.8039,5.8125,5.8162,5.8242,5.832,5.8372,5.8452,5.8509,5.8599,5.8592,5.863,5.8688,5.8751,5.8815,5.8744,5.8861,5.8864,5.8839,5.894,5.8941,5.9037,5.8911,5.8914,5.8915,0,5.781,5.7897,5.8043,5.8149,5.8187,5.8257,5.8358,5.8433,5.8524,5.8558,5.8627,5.8659,5.8757,5.873,5.8867,5.8818,5.8869,5.8907,5.8912,5.8927,5.8895,5.8959,5.9069,5.9084,5.8938,5.8936,5.8935,0,5.7843,5.7997,5.8105,5.8151,5.8276,5.8325,5.838,5.8468,5.8528,5.8615,5.8655,5.8752,5.8806,5.8881,5.894,5.8914,5.9072,5.9049,5.9105,5.9104,5.9138,5.9135,5.9259,5.9166,5.9166,5.9166,5.9165,0,5.7938,5.8027,5.8122,5.8189,5.829,5.8351,5.845,5.8506,5.8585,5.8664,5.8701,5.8775,5.8846,5.893,5.8976,5.9084,5.9107,5.9138,5.915,5.9137,5.9133,5.9172,5.9168,5.917,5.9169,5.9168,5.9167,0,5.7993,5.806,5.8181,5.8291,5.832,5.839,5.8484,5.8551,5.8605,5.8705,5.8732,5.8817,5.8917,5.8983,5.911,5.9141,5.926,5.9269,5.923,5.9237,5.9289,5.9285,5.9445,5.9471,5.9358,5.9359,5.9359,0,5.805,5.812,5.8238,5.8294,5.8349,5.8439,5.8501,5.8564,5.8627,5.8738,5.8792,5.8895,5.8981,5.914,5.9213,5.9311,5.9324,5.9374,5.9339,5.9325,5.9329,5.9325,5.9334,5.938,5.9381,5.9381,5.9382,0,5.8147,5.8177,5.8265,5.8367,5.844,5.8522,5.8604,5.8648,5.8726,5.8795,5.8899,5.8966,5.9098,5.9201,5.9306,5.9363,5.9387,5.9392,5.9411,5.9399,5.9375,5.9392,5.9249,5.9389,5.9388,5.9387,5.9387,5.9387,5.8207,5.8272,5.8366,5.8464,5.8533,5.861,5.8679,5.8743,5.8831,5.8944,5.8976,5.9085,5.9177,5.9322,5.938,5.9467,5.9461,5.9487,5.9495,5.9501,5.9503,5.936,5.9486,5.9486,5.9486,5.9486,5.9486,0,5.8308,5.8371,5.846,5.8576,5.8653,5.8669,5.8762,5.8826,5.8922,5.9005,5.909,5.9211,5.9312,5.9394,5.9498,5.9552,5.9566,5.9578,5.9576,5.9589,5.95,5.9475,5.9565,5.9565,5.9565,5.9565,5.9565,5.9565,5.837,5.8482,5.8524,5.8671,5.8734,5.8842,5.8894,5.8966,5.9033,5.9167,5.9252,5.9305,5.9389,5.95,5.9594,5.9615,5.9653,5.9663,5.9687,5.9603,5.9595,5.9586,5.9563,5.967,5.967,5.9769,5.977,5.9771]}]]